TimePST,TemperatureF,Dew PointF,Humidity,Sea Level PressureIn,VisibilityMPH,Wind Direction,Wind SpeedMPH,Gust SpeedMPH,PrecipitationIn,Events,Conditions,WindDirDegrees,DateUTC
12:53 AM,39.9,37.9,93,30.20,6.0,Calm,Calm,-,N/A,,Clear,0,2013-01-08 08:53:00
1:53 AM,39.9,39.0,97,30.20,4.0,Calm,Calm,-,N/A,,Clear,0,2013-01-08 09:53:00
2:53 AM,37.9,37.0,97,30.19,5.0,ENE,3.5,-,N/A,,Clear,70,2013-01-08 10:53:00
3:29 AM,37.4,37.4,100,30.20,2.5,Calm,Calm,-,N/A,,Partly Cloudy,0,2013-01-08 11:29:00
3:32 AM,37.4,37.4,100,30.19,1.0,Calm,Calm,-,N/A,,Mist,0,2013-01-08 11:32:00
3:40 AM,37.4,37.4,100,30.19,0.8,Calm,Calm,-,N/A,,Mist,0,2013-01-08 11:40:00
4:16 AM,37.4,37.4,100,30.19,0.2,East,3.5,-,N/A,Fog,Fog,80,2013-01-08 12:16:00
4:21 AM,35.6,35.6,100,30.19,1.0,East,3.5,-,N/A,,Mist,80,2013-01-08 12:21:00
4:37 AM,37.4,35.6,93,30.19,5.0,Calm,Calm,-,N/A,,Scattered Clouds,0,2013-01-08 12:37:00
4:51 AM,37.4,37.4,100,30.19,1.5,Calm,Calm,-,N/A,,Clear,0,2013-01-08 12:51:00
4:53 AM,37.0,37.0,100,30.19,1.0,Calm,Calm,-,N/A,,Clear,0,2013-01-08 12:53:00
5:01 AM,37.4,37.4,100,30.19,0.8,Calm,Calm,-,N/A,,Clear,0,2013-01-08 13:01:00
5:05 AM,37.4,37.4,100,30.19,1.0,Calm,Calm,-,N/A,,Mist,0,2013-01-08 13:05:00
5:15 AM,35.6,35.6,100,30.19,0.5,West,3.5,-,N/A,Fog,Fog,280,2013-01-08 13:15:00
5:42 AM,37.4,37.4,100,30.19,0.2,Calm,Calm,-,N/A,Fog,Fog,0,2013-01-08 13:42:00
6:08 AM,35.6,35.6,100,30.19,0.5,Calm,Calm,-,N/A,Fog,Fog,0,2013-01-08 14:08:00
6:19 AM,37.4,35.6,93,30.19,1.2,Calm,Calm,-,N/A,,Partly Cloudy,0,2013-01-08 14:19:00
6:23 AM,37.4,35.6,93,30.20,3.0,Calm,Calm,-,N/A,,Partly Cloudy,0,2013-01-08 14:23:00
6:53 AM,36.0,36.0,100,30.20,1.8,Calm,Calm,-,N/A,,Clear,0,2013-01-08 14:53:00
6:57 AM,35.6,35.6,100,30.20,6.0,Calm,Calm,-,N/A,,Partly Cloudy,0,2013-01-08 14:57:00
7:16 AM,35.6,35.6,100,30.21,6.0,Calm,Calm,-,N/A,,Mostly Cloudy,0,2013-01-08 15:16:00
7:20 AM,35.6,35.6,100,30.21,0.5,Calm,Calm,-,N/A,Fog,Fog,0,2013-01-08 15:20:00
7:27 AM,35.6,35.6,100,30.21,0.1,Calm,Calm,-,N/A,Fog,Fog,0,2013-01-08 15:27:00
7:53 AM,36.0,36.0,100,30.23,0.1,Calm,Calm,-,N/A,Fog,Fog,0,2013-01-08 15:53:00
8:02 AM,35.6,35.6,100,30.23,0.2,Calm,Calm,-,N/A,Fog,Fog,0,2013-01-08 16:02:00
8:32 AM,37.4,37.4,100,30.24,0.2,Calm,Calm,-,N/A,Fog,Fog,0,2013-01-08 16:32:00
8:53 AM,37.9,37.9,100,30.25,0.2,Calm,Calm,-,N/A,Fog,Fog,0,2013-01-08 16:53:00
9:06 AM,39.2,39.2,100,30.24,1.0,Calm,Calm,-,N/A,,Mist,0,2013-01-08 17:06:00
9:10 AM,39.2,39.2,100,30.24,4.0,Calm,Calm,-,N/A,,Mostly Cloudy,0,2013-01-08 17:10:00
9:18 AM,41.0,39.2,93,30.24,7.0,Calm,Calm,-,N/A,,Scattered Clouds,0,2013-01-08 17:18:00
9:53 AM,43.0,42.1,97,30.25,7.0,WSW,3.5,-,N/A,,Clear,240,2013-01-08 17:53:00
10:53 AM,50.0,44.1,80,30.23,10.0,West,4.6,-,N/A,,Clear,260,2013-01-08 18:53:00
11:53 AM,55.9,43.0,62,30.19,10.0,East,3.5,-,N/A,,Clear,100,2013-01-08 19:53:00
12:53 PM,57.9,44.1,60,30.17,10.0,Variable,5.8,-,N/A,,Clear,0,2013-01-08 20:53:00
1:53 PM,59.0,43.0,55,30.16,10.0,ENE,11.5,-,N/A,,Clear,70,2013-01-08 21:53:00
2:53 PM,57.9,42.1,56,30.16,10.0,ENE,12.7,-,N/A,,Clear,60,2013-01-08 22:53:00
3:53 PM,55.9,43.0,62,30.16,10.0,ENE,9.2,-,N/A,,Clear,70,2013-01-08 23:53:00
4:53 PM,52.0,45.0,77,30.15,10.0,ENE,6.9,-,N/A,,Clear,70,2013-01-09 00:53:00
5:53 PM,50.0,44.1,80,30.15,9.0,NE,8.1,-,N/A,,Clear,40,2013-01-09 01:53:00
6:53 PM,46.9,43.0,86,30.15,7.0,ENE,4.6,-,N/A,,Clear,70,2013-01-09 02:53:00
7:53 PM,45.0,41.0,86,30.16,6.0,Calm,Calm,-,N/A,,Clear,0,2013-01-09 03:53:00
9:53 PM,43.0,39.9,89,30.16,5.0,Calm,Calm,-,N/A,,Clear,0,2013-01-09 05:53:00
10:53 PM,42.1,39.9,92,30.16,5.0,Calm,Calm,-,N/A,,Clear,0,2013-01-09 06:53:00
11:53 PM,41.0,39.0,93,30.16,4.0,Calm,Calm,-,N/A,,Clear,0,2013-01-09 07:53:00